GLOBALSTAR M001 1 25162U 98008A 12034.76361263 -.00000084 +00000-0 +10000-3 0 00713 2 25162 052.0036 141.0739 0002234 084.0755 276.0350 12.38011203639045 GLOBALSTAR M004 1 25163U 98008B 12034.75802788 -.00000086 +00000-0 +10000-3 0 01392 2 25163 051.9980 186.2959 0001825 262.7992 097.2663 12.63180612644708 GLOBALSTAR M002 1 25164U 98008C 12034.78296880 -.00000071 +00000-0 +10000-3 0 00287 2 25164 052.0015 241.1255 0000559 100.5098 259.5786 11.61432307616817 GLOBALSTAR M003 1 25165U 98008D 12034.88181243 -.00000080 +00000-0 +10000-3 0 01219 2 25165 052.0278 010.3203 0006008 191.3150 168.7561 12.12049714641329 GLOBALSTAR M014 1 25306U 98023A 12034.84165913 -.00000072 00000-0 10000-3 0 260 2 25306 051.9863 266.5379 0002574 047.2598 312.8437 11.65397146621933 GLOBALSTAR M006 1 25307U 98023B 12034.72291241 -.00000086 +00000-0 +10000-3 0 08579 2 25307 051.9980 242.4625 0002018 067.9772 292.1310 12.62268567635653 GLOBALSTAR M015 1 25308U 98023C 12034.52463094 -.00000075 +00000-0 +10000-3 0 08742 2 25308 051.9883 060.6310 0002180 127.0984 233.0043 11.79653360632313 GLOBALSTAR M008 1 25309U 98023D 12034.80815319 -.00000083 00000-0 10000-3 0 8250 2 25309 051.9992 311.1076 0002420 303.4403 056.6204 12.35924583634424 GLOBALSTAR M023 1 25621U 99004A 12034.75970542 -.00000086 +00000-0 +10000-3 0 08298 2 25621 052.0094 156.8173 0012248 141.4911 218.6856 12.62249687599182 GLOBALSTAR M040 1 25622U 99004B 12034.82405968 -.00000086 +00000-0 +10000-3 0 04984 2 25622 051.9923 153.6407 0001608 081.5389 278.5659 12.61739518599168 GLOBALSTAR M036 1 25623U 99004C 12034.77261442 -.00000083 +00000-0 +10000-3 0 07650 2 25623 051.9973 230.7426 0001120 084.5593 275.5381 12.31446610597826 GLOBALSTAR M038 1 25624U 99004D 12034.72829063 -.00000085 +00000-0 +10000-3 0 07691 2 25624 052.0007 140.5523 0002500 103.4275 256.6864 12.52551812599400 GLOBALSTAR M022 1 25649U 99012A 12034.78527741 -.00000079 +00000-0 +10000-3 0 07021 2 25649 052.0043 241.9831 0000459 024.9868 335.0974 12.02448040589115 GLOBALSTAR M041 1 25650U 99012B 12034.72497743 -.00000083 +00000-0 +10000-3 0 07671 2 25650 052.0071 032.3831 0000739 113.8181 246.2749 12.33182977592932 GLOBALSTAR M046 1 25651U 99012C 12034.42467000 -.00000081 +00000-0 +10000-3 0 07726 2 25651 052.0042 022.9032 0000601 176.7931 183.2912 12.19535077593028 GLOBALSTAR M037 1 25652U 99012D 12034.77845663 -.00000086 00000-0 10000-3 0 7769 2 25652 052.0037 289.4140 0001688 151.7959 208.3000 12.62204128594736 GLOBALSTAR M045 1 25676U 99019A 12034.84954567 -.00000086 +00000-0 +10000-3 0 09036 2 25676 051.9975 286.9786 0001882 066.5949 293.5100 12.62267310592330 GLOBALSTAR M019 1 25677U 99019B 12034.51925696 -.00000083 +00000-0 +10000-3 0 07655 2 25677 051.9937 058.9041 0002100 163.5263 196.5661 12.35925013590682 GLOBALSTAR M044 1 25678U 99019C 12034.64897851 -.00000093 +00000-0 +00000-0 0 07513 2 25678 052.0017 082.2670 0002256 137.8441 222.2577 12.26532562588892 GLOBALSTAR M042 1 25679U 99019D 12034.72135438 -.00000082 +00000-0 +10000-3 0 08422 2 25679 052.0004 152.8631 0001752 085.4604 274.6440 12.22047086588404 GLOBALSTAR M025 1 25770U 99031A 12034.80254498 -.00000086 +00000-0 +10000-3 0 07372 2 25770 051.9993 332.2587 0000576 050.4864 309.6051 12.62267895583608 GLOBALSTAR M049 1 25771U 99031B 12034.67658588 -.00000062 +00000-0 +10000-3 0 06021 2 25771 051.9890 098.9211 0001557 180.3419 179.7377 11.12072350574223 GLOBALSTAR M047 1 25772U 99031C 12034.76274829 -.00000086 00000-0 10000-3 0 8088 2 25772 051.9991 331.9488 0000514 059.9938 300.0978 12.62269445583608 GLOBALSTAR M052 1 25773U 99031D 12034.90167482 -.00000086 +00000-0 +10000-3 0 01309 2 25773 051.9956 330.0845 0000488 157.7217 202.3659 12.62267148583624 GLOBALSTAR M035 1 25851U 99037A 12034.84502893 -.00000061 +00000-0 +10000-3 0 00171 2 25851 051.9931 142.4969 0012599 355.7809 004.2876 11.04487559556792 GLOBALSTAR M032 1 25852U 99037B 12034.71571074 -.00000086 00000-0 10000-3 0 7090 2 25852 052.0031 018.1453 0000988 131.0366 229.0588 12.62261117579837 GLOBALSTAR M051 1 25853U 99037C 12034.73898193 -.00000068 +00000-0 +10000-3 0 07121 2 25853 051.9835 298.4181 0001845 316.2360 043.8299 11.42118224574511 GLOBALSTAR M030 1 25854U 99037D 12034.91409965 -.00000086 +00000-0 +10000-3 0 07239 2 25854 052.0025 017.7312 0000642 165.6593 194.4291 12.62288341579859 GLOBALSTAR M048 1 25872U 99041A 12034.64109434 -.00000066 +00000-0 +10000-3 0 05968 2 25872 051.9432 044.4686 0002146 193.3860 166.6887 11.33721062571051 GLOBALSTAR M026 1 25873U 99041B 12034.53062307 -.00000086 +00000-0 +10000-3 0 07452 2 25873 052.0071 065.4453 0001992 139.5199 220.5821 12.62290568577928 GLOBALSTAR M043 1 25874U 99041C 12034.95808211 -.00000065 +00000-0 +10000-3 0 06479 2 25874 051.9424 317.3775 0011606 268.7717 091.1755 11.25630274573103 GLOBALSTAR M028 1 25875U 99041D 12034.51126849 -.00000086 +00000-0 +10000-3 0 07296 2 25875 052.0053 064.7583 0001450 138.9093 221.1881 12.62285998577925 GLOBALSTAR M024 1 25883U 99043A 12034.92077159 -.00000062 +00000-0 +10000-3 0 07060 2 25883 051.9978 236.1620 0002275 049.2081 310.8910 11.10110776572671 GLOBALSTAR M027 1 25884U 99043B 12034.70292109 -.00000086 +00000-0 +10000-3 0 07180 2 25884 052.0084 110.6653 0001980 131.2047 228.8986 12.62301762575062 GLOBALSTAR M054 1 25885U 99043C 12034.51710091 -.00000067 +00000-0 +10000-3 0 06880 2 25885 052.0164 043.0563 0005432 329.2938 030.7549 11.39155537562921 GLOBALSTAR M053 1 25886U 99043D 12034.61603640 -.00000065 +00000-0 +10000-3 0 05172 2 25886 052.0010 079.2913 0002691 140.7914 219.3085 11.27573359568789 GLOBALSTAR M058 1 25907U 99049A 12034.74863706 -.00000082 +00000-0 +10000-3 0 06997 2 25907 051.9967 241.3617 0001173 097.7129 262.3849 12.24258760568890 GLOBALSTAR M050 1 25908U 99049B 12034.74178117 -.00000079 +00000-0 +10000-3 0 06427 2 25908 051.9970 197.2931 0008798 029.1023 331.0299 12.07325797563158 GLOBALSTAR M033 1 25909U 99049C 12034.64358064 -.00000086 00000-0 10000-3 0 7225 2 25909 051.9986 107.9989 0002900 137.2703 222.8488 12.62278658571297 GLOBALSTAR M055 1 25910U 99049D 12034.73750061 -.00000083 00000-0 10000-3 0 7115 2 25910 052.0053 294.3969 0007940 067.3100 292.8589 12.29270467568005 GLOBALSTAR M057 1 25943U 99058A 12034.42762497 -.00000085 +00000-0 +10000-3 0 06428 2 25943 052.0012 274.8296 0001623 089.6585 270.4496 12.48714936566673 GLOBALSTAR M059 1 25944U 99058B 12034.76256856 -.00000086 00000-0 10000-3 0 7076 2 25944 052.0046 243.6542 0002180 081.2939 278.8173 12.62269282567297 GLOBALSTAR M056 1 25945U 99058C 12034.74522302 -.00000086 +00000-0 +10000-3 0 00452 2 25945 051.9957 197.2685 0001755 076.0132 284.0927 12.62275034568023 GLOBALSTAR M031 1 25946U 99058D 12034.72588307 -.00000086 +00000-0 +10000-3 0 07332 2 25946 051.9949 197.6424 0001681 078.1751 281.9296 12.62273513568045 GLOBALSTAR M039 1 25961U 99062A 12034.73544131 -.00000086 +00000-0 +10000-3 0 00009 2 25961 051.9962 016.5408 0001080 157.6746 202.4164 12.62272135563662 GLOBALSTAR M034 1 25962U 99062B 12034.49108841 -.00000081 +00000-0 +10000-3 0 03566 2 25962 051.9918 225.5463 0002016 064.7268 295.3803 12.15663128559901 GLOBALSTAR M029 1 25963U 99062C 12034.81481198 -.00000086 +00000-0 +10000-3 0 00317 2 25963 051.9927 151.3799 0002006 138.9211 221.1811 12.62267981573384 GLOBALSTAR M061 1 25964U 99062D 12034.71708714 -.00000074 +00000-0 +10000-3 0 07014 2 25964 051.9775 221.2141 0006766 137.1446 222.9894 11.76697265546681 GLOBALSTAR M063 1 26081U 00008A 12034.76519084 -.00000086 +00000-0 +10000-3 0 07824 2 26081 051.9966 197.6479 0001986 072.8866 287.2203 12.62310679561417 GLOBALSTAR M062 1 26082U 00008B 12034.59913277 -.00000084 +00000-0 +10000-3 0 06634 2 26082 052.0063 048.3585 0000570 178.5916 181.4945 12.42958396551785 GLOBALSTAR M060 1 26083U 00008C 12034.56145601 -.00000081 00000-0 10000-3 0 7537 2 26083 052.0034 040.9018 0002654 231.5735 128.4872 12.17472484557762 GLOBALSTAR M064 1 26084U 00008D 12034.62890566 -.00000086 +00000-0 +10000-3 0 09933 2 26084 052.0041 199.8832 0001654 105.3855 254.7194 12.62272104579355 GLOBALSTAR M065 1 31571U 07020A 12035.33903992 -.00000091 00000-0 69776-4 0 4305 2 31571 051.9937 330.5397 0001729 181.3392 178.7491 12.62263344217223 GLOBALSTAR M069 1 31573U 07020C 12034.41625469 -.00000086 +00000-0 +10000-3 0 07228 2 31573 051.9976 288.6865 0000335 172.4342 187.6531 12.62266848217843 GLOBALSTAR M072 1 31574U 07020D 12035.41124353 -.00000099 00000-0 26533-4 0 4282 2 31574 052.0107 017.3571 0001285 187.6934 172.3919 12.62269075216477 GLOBALSTAR M071 1 31576U 07020F 12034.86928552 -.00000086 +00000-0 +10000-3 0 07511 2 31576 052.0097 288.5787 0000604 078.8254 281.2668 12.62260237217897 GLOBALSTAR M067 1 32263U 07048A 12034.71524427 -.00000104 00000-0 00000+0 0 3996 2 32263 051.9747 150.7907 0001549 107.1039 252.9991 12.62270663199562 GLOBALSTAR M070 1 32264U 07048B 12035.39375452 -.00000086 00000-0 10000-3 0 3448 2 32264 051.9770 239.2921 0000788 074.4346 285.6604 12.62266399198136 GLOBALSTAR M066 1 32265U 07048C 12034.68325178 -.00000104 00000-0 00000+0 0 3963 2 32265 051.9683 105.5314 0002035 131.2851 228.8193 12.62268557200270 GLOBALSTAR M068 1 32266U 07048D 12034.57208524 -.00000086 00000-0 10000-3 0 4041 2 32266 051.9857 062.7151 0001901 134.8949 225.2069 12.62267311201029 GLOBALSTAR M079 1 37188U 10054A 12034.74054148 -.00000086 +00000-0 +10000-3 0 04084 2 37188 052.0039 242.7408 0000720 089.0104 271.0839 12.62269209060540 GLOBALSTAR M074 1 37189U 10054B 12035.49272417 -.00000102 00000-0 85320-5 0 4043 2 37189 052.0017 240.6229 0000973 105.1182 254.9794 12.62270284 60636 GLOBALSTAR M076 1 37190U 10054C 12035.51309131 -.00000086 00000-0 10000-3 0 4145 2 37190 052.0027 240.2413 0000814 137.9047 222.1887 12.62264743 60641 GLOBALSTAR M077 1 37191U 10054D 12035.36178933 -.00000086 00000-0 10000-3 0 2725 2 37191 052.0061 196.2861 0001335 082.7547 277.3447 12.62279650 61376 GLOBALSTAR M075 1 37192U 10054E 12035.22803001 -.00000086 00000-0 10000-3 0 4184 2 37192 051.9980 286.2007 0001047 060.7867 299.3099 12.62271181 59845 GLOBALSTAR M073 1 37193U 10054F 12034.74762248 -.00000093 +00000-0 +62156-4 0 04120 2 37193 052.0047 197.7416 0001348 090.6089 269.4938 12.62269643061296 GLOBALSTAR M083 1 37739U 11033A 12034.95026440 -.00000047 +00000-0 +10000-3 0 01951 2 37739 051.9948 274.0555 0027720 019.5173 340.6799 13.74241732028607 GLOBALSTAR M088 1 37740U 11033B 12034.63147985 -.00000086 00000-0 10000-3 0 1825 2 37740 051.9739 062.9869 0001297 111.5776 248.5229 12.62267068 26082 GLOBALSTAR M091 1 37741U 11033C 12034.89596550 -.00000104 +00000-0 +00000-0 0 01906 2 37741 052.0007 017.0567 0000451 164.7823 195.3056 12.62271057026870 GLOBALSTAR M085 1 37742U 11033D 12034.80487149 -.00000086 +00000-0 +10000-3 0 01948 2 37742 051.9896 332.6975 0000313 098.4889 261.6011 12.62264908027603 GLOBALSTAR M081 1 37743U 11033E 12034.74529912 -.00000086 00000-0 10000-3 0 1880 2 37743 051.9988 332.6275 0001300 134.2931 225.8043 12.62265282 27639 GLOBALSTAR M089 1 37744U 11033F 12034.79225557 -.00000086 00000-0 10000-3 0 1828 2 37744 051.9962 287.6516 0000686 114.2554 245.8376 12.62267468 28353